Date,TemperatureHighF,TemperatureAvgF,TemperatureLowF,DewpointHighF,DewpointAvgF,DewpointLowF,HumidityHigh,HumidityAvg,HumidityLow,PressureMaxIn,PressureMinIn,WindSpeedMaxMPH,WindSpeedAvgMPH,GustSpeedMaxMPH,PrecipitationSumIn
2013-7-1,82.0,72.6,62.1,64.9,61.2,58.4,95,70,47,30.04,29.96,2,0,7,0.00
2013-7-2,83.5,72.0,62.2,65.1,61.5,57.5,88,71,44,30.03,29.94,12,4,31,0.00
2013-7-3,82.8,73.0,66.7,69.5,66.1,63.7,92,80,61,30.05,29.95,10,3,17,0.00
2013-7-4,85.6,76.7,68.4,68.2,65.9,62.5,91,71,46,30.11,30.04,9,3,20,0.00
2013-7-5,86.0,75.0,62.4,64.0,61.1,58.4,93,65,40,30.17,30.11,9,3,17,0.00
2013-7-6,90.1,77.3,65.7,65.3,62.6,59.7,85,63,39,30.16,30.08,10,4,19,0.00
2013-7-7,91.0,80.6,68.0,66.3,64.1,61.2,81,59,41,30.13,30.06,10,3,19,0.00
2013-7-8,89.2,78.9,68.4,66.2,62.5,58.9,82,60,39,30.12,30.05,10,3,19,0.00
2013-7-9,90.0,78.1,64.8,64.6,61.7,58.4,82,59,41,30.11,29.95,11,4,19,0.00
2013-7-10,86.0,76.1,65.3,69.7,64.8,60.1,84,69,47,29.97,29.83,9,2,14,0.00
2013-7-11,86.4,75.6,67.3,69.1,65.6,63.0,87,72,52,29.90,29.84,9,2,17,0.01
2013-7-12,89.4,78.3,64.2,68.2,64.4,60.8,89,65,41,29.97,29.89,10,4,22,0.00
2013-7-13,88.3,77.6,68.5,76.2,68.4,64.2,89,75,49,29.98,29.91,9,2,17,0.12
2013-7-14,88.7,76.6,70.3,70.9,65.7,60.7,91,72,41,30.06,29.95,9,2,16,0.04
2013-7-15,90.1,76.9,64.2,66.3,63.1,59.2,88,65,37,30.07,30.01,10,3,19,0.00
2013-7-16,90.5,78.0,68.0,69.8,65.2,63.2,88,68,42,30.09,30.01,18,4,30,0.01
2013-7-17,87.4,75.5,66.6,72.2,65.4,61.9,94,73,44,30.09,30.01,7,2,14,0.26
2013-7-18,88.0,73.7,67.8,70.0,67.2,61.7,99,83,43,30.07,29.97,9,1,26,0.69
2013-7-19,85.6,70.7,63.5,71.9,66.8,63.2,99,89,60,30.04,29.93,6,0,15,0.64
2013-7-20,84.0,72.2,63.9,73.6,68.0,63.0,99,87,70,29.96,29.88,2,0,7,0.02
2013-7-21,86.5,75.6,64.0,72.9,67.8,63.5,99,78,59,30.00,29.95,1,0,10,0.00
2013-7-22,89.2,76.9,65.7,70.4,67.1,63.9,96,74,49,30.00,29.91,2,0,11,0.00
2013-7-23,90.1,76.1,67.5,73.4,68.6,65.4,95,79,51,29.97,29.85,6,0,17,0.22
2013-7-24,89.4,78.8,66.9,72.3,67.6,59.5,96,71,39,29.97,29.90,8,0,17,0.00
2013-7-25,93.2,80.9,69.1,72.5,68.8,64.4,95,70,39,29.97,29.86,7,0,17,0.00
2013-7-26,93.6,80.6,66.7,69.6,64.1,57.4,87,61,34,29.90,29.84,6,0,17,0.00
2013-7-27,89.8,79.3,68.0,76.5,70.2,62.8,86,74,61,29.86,29.68,1,0,14,0.00
2013-7-28,91.2,81.6,73.8,75.7,72.0,64.5,99,75,50,29.89,29.74,1,0,9,0.00
2013-7-29,84.0,75.8,67.3,69.3,65.0,61.6,93,70,51,30.18,29.89,3,0,14,0.11
2013-7-30,85.8,76.2,65.1,68.9,65.4,62.3,92,71,48,30.20,30.08,3,0,11,0.00
2013-7-31,90.7,78.5,66.2,69.5,66.0,63.0,92,68,44,30.11,29.97,1,0,6,0.00